H-2A R/B (38341 NORAD) Tracking and Keplerian Element Data

This shows tracking and keplerian element data for the satellite.

Feedback or suggestion? Click here.




ElementValue
Catalog38341
NameH-2A R/B
Epoch Orbit33419
Epoch Day203.22822642
Epoch Year2018
RAAN307.1697
Inclination98.4233
Eccentricity0.0054731
Argument of Perigee312.0127
Mean Anonmoly47.6432
Mean Motion14.83773012
Decay Rate6.6E-07
L11 38341U 12025E 18203.22822642 .00000066 00000-0 15434-4 0 9994
L22 38341 98.4233 307.1697 0054731 312.0127 47.6432 14.83773012334191

Live tracking and technical data element details for H-2A R/B (NORAD 38341). H-2A R/B can be tracked NOW for your location showing map with azimuth and elevation plus other details from your city location.

Track the satellite on the map from your city or location and see movement details for azimuth, elevation, latitude, longitude, range, height, and movement on the map or in text.







IsCatalogInMostPopularTable: catalog: 38341, numindb: 87
Update: records affected: 1



GetName: 38341 H-2A R/B

Hit Count: updated at: Mon, 23 Jul 2018 07:31:25 GMT